Tracking 29892 objects as of 21-Nov-2024
HD Live streaming from Space Station
objects crossing your sky now

STARLINK-30966

Track STARLINK-30966 now!
10-day predictions
STARLINK-30966 is classified as:


NORAD ID: 58454
Int'l Code: 2023-183T
Perigee: 565.2 km
Apogee: 567.3 km
Inclination: 43.0 °
Period: 95.8 minutes
Semi major axis: 6937 km
RCS: Unknown
Launch date: November 28, 2023
Source: United States (US)
Launch site: AIR FORCE EASTERN TEST RANGE (AFETR)
Your satellite tracking list
Your tracking list is empty




NASA's NSSDC Master Catalog

Two Line Element Set (TLE):
1 58454U 23183T   24325.45076263  .00000161  00000-0  26965-4 0  9992
2 58454  43.0029 100.4365 0001535 297.0485  63.0200 15.02536719 55396
Source of the keplerian elements: AFSPC